Weather in Peschanye Kovali

Russia / Republic of Tatarstan     55°37′41″N   49°08′46″E
В апреле 2022 года жителям России запретили посещать сайт meteo.paraplan.net по решению Генеральной прокуратуры. Аудитория сайта уменьшилась в 10 раз. Владельцы сайта не видят смысла в поддержке погодного сервера в таких условиях. Сайт будет закрыт в октябре.
temp.,
°C
wind,
m/s
gust,
m/s
humid.,
%
clouds,
%
prec.,
mm/h
press.,
hPa
HPBL,
m
3 october, mon
mon300:00+13sse61392100 0.0 1012423
03:00+13sse6139599 0.4 1013436
06:00+13sse6149088 0.3 1013468
09:00+14sse7156989 0.3 1014579
12:00+17s8165348 0.0 1015858
15:00+17sse8154796 0.0 1016989
18:00+15sse81648100 0.0 1017678
21:00+13sse71547100 0.0 1019619
4 october, tue
tue400:00+13sse61447100 0.0 1020565
03:00+12sse61248100 0.0 1020490
06:00+11sse51249100 0.0 1022495
09:00+11sse61250100 0.0 1023574
12:00+11sse51152100 0.0 1024588
15:00+14sse61045100 0.0 1024743
18:00+11se41149100 0.0 1024301
21:00+10s51271100 0.5 1025509
5 october, wed
wed500:00+10se41078100 0.6 1024326
03:00+10sse51350100 0.6 1024448
06:00+9sse61363100 0.0 1023488
09:00+11sse7115695 0.0 1022734
12:00+10sse51363100 0.1 1022621
15:00+11sse71258100 0.2 1020788
18:00+10sse71377100 0.1 1019789
21:00+8sse61291100 1.9 1018589
6 october, thu
thu600:00+9s61194100 0.9 1016557
03:00+10ssw5992100 1.0 1015554
06:00+7sw389245 0.1 1014274
09:00+8wsw3686100 0.4 1014427
12:00+10wsw456582 0.1 10131143
15:00+9w566978 0.3 1014985
18:00+6wsw4888100 0.1 1015322
21:00+8w5984100 0.3 1014576
7 october, fri
fri700:00+6w498331 0.0 1015347
03:00+4sw37865 0.0 1014146
06:00+4ssw3891100 0.0 1013185
09:00+6ssw41093100 0.8 1012452
12:00+8w51195100 0.3 1012647
15:00+10wnw61077100 0.4 1013888
18:00+9wsw5118032 0.1 1014348
21:00+10w61480100 0.2 1014682